Погода в Эдмундстоне

Канада     47°21′50″N   68°19′54″W
темп.,
°C
ветер,
м/с
пор.,
м/с
влажн.,
%
обл.,
%
осадки,
мм/ч
давл.,
гПа
погр.,
м
28 ноября, вс
вс2823:00−5з71685100 0.1 9961236
02:00−5з61485100 0.1 9981185
05:00−5з61483100 0.1 10001017
08:00−6з6138179 0.1 1002861
11:00−4зюз6107799 0.0 1005964
14:00−3з597692 0.0 1006987
17:00−5зюз388564 0.0 1008248
20:00−8зюз37925 0.0 1010189
29 ноября, пн
пн2923:00−11юз119755 0.0 101210
02:00−11юз119797 0.0 101310
05:00−9зюз0094100 0.0 101323
08:00−9с009657 0.0 101413
11:00−5с237785 0.0 1013399
14:00−3с346797 0.0 1010880
17:00−5ссз378299 0.0 1010253
20:00−6ссз4108698 0.0 1010466
30 ноября, вт
вт3023:00−7сз4128778 0.0 1008554
02:00−7зсз51288100 0.0 1007639
05:00−8зсз5138794 0.0 1007651
08:00−8зсз4128444 0.0 1007612
11:00−5зсз611755 0.0 1007950
14:00−3зсз510676 0.0 10071197
17:00−6з37835 0.0 1008163
20:00−8зюз2694100 0.0 1010145
1 декабря, ср
ср123:00−7юз2592100 0.0 1011187
02:00−6юз2691100 0.0 1011268
05:00−5юз389065 0.0 1012430
08:00−8ююз27955 0.1 1014161
11:00−2юз5128095 0.0 1015735
14:00+1зюз5107582 0.0 10141264
17:00−3зюз38865 0.1 1016177
20:00−4юз3993100 0.1 1018275
2 декабря, чт
чт223:00−3юз3988100 0.0 1018397
02:00−4ююз3108996 0.0 1017394
05:00−3ю31190100 0.0 1015402
08:00−2ю41385100 0.0 1013451
11:00−1ююв51282100 0.0 1010435
14:00+1ююв51282100 0.0 1005555
17:00+1ю51293100 0.0 1002520
20:00+1ю41398100 0.2 999643